Погода в Дарьинском

Казахстан     51°21′15″N   51°45′04″E
темп.,
°C
ветер,
м/с
пор.,
м/с
влажн.,
%
обл.,
%
осадки,
мм/ч
давл.,
гПа
погр.,
м
22 января, пт
пт2223:00−19юз4897100 0.0 1025197
02:00−17юз5897100 0.1 1024197
05:00−15юз5896100 1.1 1023264
08:00−13ююз61195100 1.3 1021355
11:00−12юз5994100 1.8 1021492
14:00−11зюз4692100 0.1 1021473
17:00−13зюз3396100 0.1 102180
20:00−16зюз239696 0.0 102220
23 января, сб
сб2323:00−16з119696 0.0 102420
02:00−13в0194100 0.0 102520
05:00−13вюв2396100 0.2 102571
08:00−12юв3595100 0.4 1027154
11:00−11юв5794100 0.7 1027264
14:00−9ююв5994100 0.5 1027291
17:00−7ююв5895100 0.9 1027250
20:00−4ю5896100 0.7 1027180
24 января, вс
вс2423:00+1юз59100100 1.1 1026241
02:00+1юз611100100 0.4 1027340
05:000юз71198100 1.1 1026399
08:00−3юз51194100 0.1 1027287
11:00−2юз61093100 0.3 1029306
14:000юз61095100 0.0 1029383
17:000ююз5995100 0.0 1029303
20:00−2ююз5997100 0.0 1031204
25 января, пн
пн2523:00−3ю4896100 0.0 1031170
02:00−1ю579797 0.0 1031342
05:00−1ю579798 0.0 1031396
08:00−1ююв4796100 0.0 1031379
11:00−1ююв5895100 0.0 1031421
14:00−1ююв6994100 0.0 1031439
17:00−1ююв6996100 0.0 1030452
20:00−2ююв61094100 0.0 1030462
26 января, вт
вт2623:000ююв71193100 0.0 1030550
02:00−1ююв61093100 0.0 1030542
05:00−3ююв61195100 0.0 1030315
08:00−5ююв51195100 0.0 1030271
11:00−6ююв5109598 0.0 1030274
14:00−4ююв599395 0.0 1030348
17:00−6юв599378 0.0 1029272
20:00−7юв4109477 0.0 1029230